Time,TemperatureF,DewpointF,PressureIn,WindDirection,WindDirectionDegrees,WindSpeedMPH,WindSpeedGustMPH,Humidity,HourlyPrecipIn,Conditions,Clouds,dailyrainin,SolarRadiationWatts/m^2,SoftwareType,DateUTC
2013-07-15 00:01:00,73.8,70.0,30.12,North,32767,0.0,0.0,88,0.00,,,0.00,0,Wunderground v.1.15,2013-07-15 04:01:00,
2013-07-15 00:02:00,73.8,70.4,30.12,North,32767,0.0,0.0,89,0.00,,,0.00,0,Wunderground v.1.15,2013-07-15 04:02:00,
2013-07-15 00:03:00,73.8,70.0,30.12,North,32767,0.0,0.0,88,0.00,,,0.00,0,Wunderground v.1.15,2013-07-15 04:03:00,
2013-07-15 00:09:00,73.7,70.3,30.12,North,32767,0.0,0.0,89,0.00,,,0.00,0,Wunderground v.1.15,2013-07-15 04:09:00,
2013-07-15 00:10:00,73.7,70.3,30.12,North,32767,0.0,0.0,89,0.00,,,0.00,0,Wunderground v.1.15,2013-07-15 04:10:00,
2013-07-15 00:16:00,73.6,70.2,30.12,North,32767,0.0,0.0,89,0.00,,,0.00,0,Wunderground v.1.15,2013-07-15 04:16:00,
2013-07-15 00:22:00,73.4,70.0,30.12,North,32767,0.0,0.0,89,0.00,,,0.00,0,Wunderground v.1.15,2013-07-15 04:22:00,
2013-07-15 00:28:00,73.3,70.2,30.12,North,32767,0.0,0.0,90,0.00,,,0.00,0,Wunderground v.1.15,2013-07-15 04:28:00,
2013-07-15 00:33:00,73.3,70.2,30.12,North,32767,0.0,0.0,90,0.00,,,0.00,0,Wunderground v.1.15,2013-07-15 04:33:00,
2013-07-15 00:39:00,73.2,70.1,30.11,North,32767,0.0,0.0,90,0.00,,,0.00,0,Wunderground v.1.15,2013-07-15 04:39:00,
2013-07-15 00:45:00,73.1,70.3,30.11,North,32767,0.0,0.0,91,0.00,,,0.00,0,Wunderground v.1.15,2013-07-15 04:45:00,
2013-07-15 00:51:00,73.0,70.2,30.12,North,32767,0.0,0.0,91,0.00,,,0.00,0,Wunderground v.1.15,2013-07-15 04:51:00,
2013-07-15 00:57:00,72.9,70.4,30.11,North,32767,0.0,0.0,92,0.00,,,0.00,0,Wunderground v.1.15,2013-07-15 04:57:00,
2013-07-15 01:02:00,72.8,70.3,30.12,North,32767,0.0,0.0,92,0.00,,,0.00,0,Wunderground v.1.15,2013-07-15 05:02:00,
2013-07-15 01:08:00,72.7,70.2,30.11,North,32767,0.0,0.0,92,0.00,,,0.00,0,Wunderground v.1.15,2013-07-15 05:08:00,
2013-07-15 01:14:00,72.6,70.1,30.11,North,32767,0.0,0.0,92,0.00,,,0.00,0,Wunderground v.1.15,2013-07-15 05:14:00,
2013-07-15 01:20:00,72.5,70.0,30.11,North,32767,0.0,0.0,92,0.00,,,0.00,0,Wunderground v.1.15,2013-07-15 05:20:00,
2013-07-15 01:25:00,72.4,70.3,30.12,North,32767,0.0,0.0,93,0.00,,,0.00,0,Wunderground v.1.15,2013-07-15 05:25:00,
2013-07-15 01:31:00,72.4,70.3,30.12,North,32767,0.0,0.0,93,0.00,,,0.00,0,Wunderground v.1.15,2013-07-15 05:31:00,
2013-07-15 01:37:00,72.2,70.1,30.12,North,32767,0.0,0.0,93,0.00,,,0.00,0,Wunderground v.1.15,2013-07-15 05:37:00,
2013-07-15 01:42:00,72.2,70.1,30.12,North,32767,0.0,0.0,93,0.00,,,0.00,0,Wunderground v.1.15,2013-07-15 05:42:00,
2013-07-15 01:48:00,72.1,70.0,30.11,North,32767,0.0,0.0,93,0.00,,,0.00,0,Wunderground v.1.15,2013-07-15 05:48:00,
2013-07-15 01:54:00,71.9,69.8,30.12,North,32767,0.0,0.0,93,0.00,,,0.00,0,Wunderground v.1.15,2013-07-15 05:54:00,
2013-07-15 02:00:00,71.8,70.0,30.11,North,32767,0.0,0.0,94,0.00,,,0.00,0,Wunderground v.1.15,2013-07-15 06:00:00,
2013-07-15 02:05:00,71.7,69.9,30.11,North,32767,0.0,0.0,94,0.00,,,0.00,0,Wunderground v.1.15,2013-07-15 06:05:00,
2013-07-15 02:11:00,71.7,69.9,30.11,North,32767,0.0,0.0,94,0.00,,,0.00,0,Wunderground v.1.15,2013-07-15 06:11:00,
2013-07-15 02:17:00,71.6,70.1,30.11,North,32767,0.0,0.0,95,0.00,,,0.00,0,Wunderground v.1.15,2013-07-15 06:17:00,
2013-07-15 02:23:00,71.5,70.0,30.11,North,32767,0.0,0.0,95,0.00,,,0.00,0,Wunderground v.1.15,2013-07-15 06:23:00,
2013-07-15 02:29:00,71.5,69.7,30.11,North,32767,0.0,0.0,94,0.00,,,0.00,0,Wunderground v.1.15,2013-07-15 06:29:00,
2013-07-15 02:34:00,71.4,69.6,30.11,North,32767,0.0,0.0,94,0.00,,,0.00,0,Wunderground v.1.15,2013-07-15 06:34:00,
2013-07-15 02:40:00,71.3,69.5,30.11,North,32767,0.0,0.0,94,0.00,,,0.00,0,Wunderground v.1.15,2013-07-15 06:40:00,
2013-07-15 02:46:00,71.2,69.4,30.11,North,32767,0.0,0.0,94,0.00,,,0.00,0,Wunderground v.1.15,2013-07-15 06:46:00,
2013-07-15 02:52:00,71.1,69.6,30.11,North,32767,0.0,0.0,95,0.00,,,0.00,0,Wunderground v.1.15,2013-07-15 06:52:00,
2013-07-15 02:58:00,71.0,69.5,30.11,North,32767,0.0,0.0,95,0.00,,,0.00,0,Wunderground v.1.15,2013-07-15 06:58:00,
2013-07-15 03:03:00,70.9,69.4,30.11,North,32767,0.0,0.0,95,0.00,,,0.00,0,Wunderground v.1.15,2013-07-15 07:03:00,
2013-07-15 03:09:00,70.8,69.3,30.11,North,32767,0.0,0.0,95,0.00,,,0.00,0,Wunderground v.1.15,2013-07-15 07:09:00,
2013-07-15 03:15:00,70.7,69.2,30.11,North,32767,0.0,0.0,95,0.00,,,0.00,0,Wunderground v.1.15,2013-07-15 07:15:00,
2013-07-15 03:21:00,70.6,69.1,30.11,North,32767,0.0,0.0,95,0.00,,,0.00,0,Wunderground v.1.15,2013-07-15 07:21:00,
2013-07-15 03:27:00,70.5,69.0,30.11,North,32767,0.0,0.0,95,0.00,,,0.00,0,Wunderground v.1.15,2013-07-15 07:27:00,
2013-07-15 03:32:00,70.5,69.0,30.11,North,32767,0.0,0.0,95,0.00,,,0.00,0,Wunderground v.1.15,2013-07-15 07:32:00,
2013-07-15 03:38:00,70.4,68.9,30.11,North,32767,0.0,0.0,95,0.00,,,0.00,0,Wunderground v.1.15,2013-07-15 07:38:00,
2013-07-15 03:44:00,70.4,68.9,30.11,North,32767,0.0,0.0,95,0.00,,,0.00,0,Wunderground v.1.15,2013-07-15 07:44:00,
2013-07-15 03:50:00,70.3,68.8,30.11,North,32767,0.0,0.0,95,0.00,,,0.00,0,Wunderground v.1.15,2013-07-15 07:50:00,
2013-07-15 03:56:00,70.2,68.7,30.11,North,32767,0.0,0.0,95,0.00,,,0.00,0,Wunderground v.1.15,2013-07-15 07:56:00,
2013-07-15 04:02:00,70.2,68.7,30.11,North,32767,0.0,0.0,95,0.00,,,0.00,0,Wunderground v.1.15,2013-07-15 08:02:00,
2013-07-15 04:08:00,70.1,68.9,30.11,North,32767,0.0,0.0,96,0.00,,,0.00,0,Wunderground v.1.15,2013-07-15 08:08:00,
2013-07-15 04:14:00,70.0,68.8,30.11,North,32767,0.0,0.0,96,0.00,,,0.00,0,Wunderground v.1.15,2013-07-15 08:14:00,
2013-07-15 04:20:00,70.0,68.8,30.11,North,32767,0.0,0.0,96,0.00,,,0.00,0,Wunderground v.1.15,2013-07-15 08:20:00,
2013-07-15 04:26:00,69.9,68.7,30.11,North,32767,0.0,0.0,96,0.00,,,0.00,0,Wunderground v.1.15,2013-07-15 08:26:00,
2013-07-15 04:31:00,69.9,68.7,30.11,North,32767,0.0,0.0,96,0.00,,,0.00,0,Wunderground v.1.15,2013-07-15 08:31:00,
2013-07-15 04:37:00,69.8,68.6,30.11,North,32767,0.0,0.0,96,0.00,,,0.00,0,Wunderground v.1.15,2013-07-15 08:37:00,
2013-07-15 04:43:00,69.8,68.6,30.11,North,32767,0.0,0.0,96,0.00,,,0.00,0,Wunderground v.1.15,2013-07-15 08:43:00,
2013-07-15 04:49:00,69.8,68.6,30.11,North,32767,0.0,0.0,96,0.00,,,0.00,0,Wunderground v.1.15,2013-07-15 08:49:00,
2013-07-15 04:55:00,69.7,68.5,30.11,North,32767,0.0,0.0,96,0.00,,,0.00,0,Wunderground v.1.15,2013-07-15 08:55:00,
2013-07-15 05:01:00,69.7,68.5,30.11,North,32767,0.0,0.0,96,0.00,,,0.00,0,Wunderground v.1.15,2013-07-15 09:01:00,
2013-07-15 05:07:00,69.6,68.4,30.11,North,32767,0.0,0.0,96,0.00,,,0.00,0,Wunderground v.1.15,2013-07-15 09:07:00,
2013-07-15 05:13:00,69.6,68.4,30.11,North,32767,0.0,0.0,96,0.00,,,0.00,0,Wunderground v.1.15,2013-07-15 09:13:00,
2013-07-15 05:19:00,69.5,68.3,30.11,North,32767,0.0,0.0,96,0.00,,,0.00,0,Wunderground v.1.15,2013-07-15 09:19:00,
2013-07-15 05:25:00,69.5,68.3,30.11,North,32767,0.0,0.0,96,0.00,,,0.00,0,Wunderground v.1.15,2013-07-15 09:25:00,
2013-07-15 05:31:00,69.5,68.3,30.11,North,32767,0.0,0.0,96,0.00,,,0.00,0,Wunderground v.1.15,2013-07-15 09:31:00,
2013-07-15 05:36:00,69.4,68.2,30.11,North,32767,0.0,0.0,96,0.00,,,0.00,0,Wunderground v.1.15,2013-07-15 09:36:00,
2013-07-15 05:42:00,69.4,68.2,30.12,North,32767,0.0,0.0,96,0.00,,,0.00,0,Wunderground v.1.15,2013-07-15 09:42:00,
2013-07-15 05:48:00,69.4,68.5,30.12,North,32767,0.0,0.0,97,0.00,,,0.00,0,Wunderground v.1.15,2013-07-15 09:48:00,
2013-07-15 05:54:00,69.4,68.5,30.12,North,32767,0.0,0.0,97,0.00,,,0.00,0,Wunderground v.1.15,2013-07-15 09:54:00,
2013-07-15 06:00:00,69.4,68.5,30.12,North,32767,0.0,0.0,97,0.00,,,0.00,0,Wunderground v.1.15,2013-07-15 10:00:00,
2013-07-15 06:05:00,69.4,68.5,30.12,North,32767,0.0,0.0,97,0.00,,,0.00,0,Wunderground v.1.15,2013-07-15 10:05:00,
2013-07-15 06:11:00,69.4,68.5,30.12,North,32767,0.0,0.0,97,0.00,,,0.00,0,Wunderground v.1.15,2013-07-15 10:11:00,
2013-07-15 06:17:00,69.5,68.6,30.12,North,32767,0.0,0.0,97,0.00,,,0.00,0,Wunderground v.1.15,2013-07-15 10:17:00,
2013-07-15 06:23:00,69.6,68.7,30.13,North,32767,0.0,0.0,97,0.00,,,0.00,5,Wunderground v.1.15,2013-07-15 10:23:00,
2013-07-15 06:29:00,69.7,68.8,30.13,North,32767,0.0,0.0,97,0.00,,,0.00,7,Wunderground v.1.15,2013-07-15 10:29:00,
2013-07-15 06:34:00,69.8,69.2,30.13,North,32767,0.0,0.0,98,0.00,,,0.00,9,Wunderground v.1.15,2013-07-15 10:34:00,
2013-07-15 06:40:00,69.9,69.3,30.13,North,32767,0.0,0.0,98,0.00,,,0.00,12,Wunderground v.1.15,2013-07-15 10:40:00,
2013-07-15 06:46:00,70.1,69.5,30.13,North,32767,0.0,0.0,98,0.00,,,0.00,16,Wunderground v.1.15,2013-07-15 10:46:00,
2013-07-15 06:52:00,70.3,69.7,30.14,North,32767,0.0,0.0,98,0.00,,,0.00,19,Wunderground v.1.15,2013-07-15 10:52:00,
2013-07-15 06:58:00,70.5,69.9,30.14,North,32767,0.0,0.0,98,0.00,,,0.00,23,Wunderground v.1.15,2013-07-15 10:58:00,
2013-07-15 07:03:00,70.7,70.1,30.14,North,32767,0.0,0.0,98,0.00,,,0.00,25,Wunderground v.1.15,2013-07-15 11:03:00,
2013-07-15 07:09:00,71.0,70.4,30.14,North,32767,0.0,0.0,98,0.00,,,0.00,25,Wunderground v.1.15,2013-07-15 11:09:00,
2013-07-15 07:15:00,71.1,70.5,30.14,North,32767,0.0,0.0,98,0.00,,,0.00,19,Wunderground v.1.15,2013-07-15 11:15:00,
2013-07-15 07:21:00,71.2,70.6,30.14,North,32767,0.0,0.0,98,0.00,,,0.00,26,Wunderground v.1.15,2013-07-15 11:21:00,
2013-07-15 07:27:00,71.3,70.7,30.14,North,32767,0.0,0.0,98,0.00,,,0.00,28,Wunderground v.1.15,2013-07-15 11:27:00,
2013-07-15 07:32:00,71.4,70.8,30.14,North,32767,0.0,0.0,98,0.00,,,0.00,40,Wunderground v.1.15,2013-07-15 11:32:00,
2013-07-15 07:38:00,71.4,70.8,30.15,North,32767,0.0,0.0,98,0.00,,,0.00,54,Wunderground v.1.15,2013-07-15 11:38:00,
2013-07-15 07:44:00,71.6,71.0,30.14,North,32767,0.0,0.0,98,0.00,,,0.00,67,Wunderground v.1.15,2013-07-15 11:44:00,
2013-07-15 07:50:00,71.8,71.2,30.14,North,32767,0.0,0.0,98,0.00,,,0.00,65,Wunderground v.1.15,2013-07-15 11:50:00,
2013-07-15 07:56:00,72.0,71.1,30.15,North,32767,0.0,0.0,97,0.00,,,0.00,62,Wunderground v.1.15,2013-07-15 11:56:00,
2013-07-15 08:02:00,72.2,71.3,30.15,North,32767,0.0,0.0,97,0.00,,,0.00,67,Wunderground v.1.15,2013-07-15 12:02:00,
2013-07-15 08:08:00,72.4,71.5,30.15,North,32767,0.0,0.0,97,0.00,,,0.00,67,Wunderground v.1.15,2013-07-15 12:08:00,
2013-07-15 08:14:00,72.6,71.4,30.14,North,32767,0.0,0.0,96,0.00,,,0.00,70,Wunderground v.1.15,2013-07-15 12:14:00,
2013-07-15 08:20:00,72.9,71.7,30.15,North,32767,0.0,0.0,96,0.00,,,0.00,74,Wunderground v.1.15,2013-07-15 12:20:00,
2013-07-15 08:26:00,73.1,71.6,30.15,North,32767,0.0,0.0,95,0.00,,,0.00,77,Wunderground v.1.15,2013-07-15 12:26:00,
2013-07-15 08:32:00,73.4,71.6,30.15,North,32767,0.0,0.0,94,0.00,,,0.00,69,Wunderground v.1.15,2013-07-15 12:32:00,
2013-07-15 08:38:00,73.7,71.9,30.15,North,32767,0.0,0.0,94,0.00,,,0.00,137,Wunderground v.1.15,2013-07-15 12:38:00,
2013-07-15 08:44:00,74.1,71.9,30.15,North,32767,0.0,0.0,93,0.00,,,0.00,223,Wunderground v.1.15,2013-07-15 12:44:00,
2013-07-15 08:50:00,74.8,72.6,30.15,North,32767,0.0,0.0,93,0.00,,,0.00,132,Wunderground v.1.15,2013-07-15 12:50:00,
2013-07-15 08:56:00,75.3,72.5,30.16,North,32767,0.0,0.0,91,0.00,,,0.00,141,Wunderground v.1.15,2013-07-15 12:56:00,
2013-07-15 09:02:00,75.9,73.1,30.16,North,32767,0.0,0.0,91,0.00,,,0.00,151,Wunderground v.1.15,2013-07-15 13:02:00,
2013-07-15 09:08:00,76.4,73.2,30.16,North,32767,0.0,0.0,90,0.00,,,0.00,118,Wunderground v.1.15,2013-07-15 13:08:00,
2013-07-15 09:14:00,76.8,72.6,30.16,North,32767,0.0,0.0,87,0.00,,,0.00,132,Wunderground v.1.15,2013-07-15 13:14:00,
2013-07-15 09:20:00,77.2,73.4,30.15,North,32767,0.0,0.0,88,0.00,,,0.00,214,Wunderground v.1.15,2013-07-15 13:20:00,
2013-07-15 09:26:00,77.7,73.9,30.15,North,32767,0.0,0.0,88,0.00,,,0.00,132,Wunderground v.1.15,2013-07-15 13:26:00,
2013-07-15 09:32:00,78.2,74.0,30.15,North,32767,0.0,0.0,87,0.00,,,0.00,158,Wunderground v.1.15,2013-07-15 13:32:00,
2013-07-15 09:38:00,78.6,73.7,30.15,North,32767,0.0,0.0,85,0.00,,,0.00,257,Wunderground v.1.15,2013-07-15 13:38:00,
2013-07-15 09:44:00,79.0,73.7,30.15,North,32767,0.0,0.0,84,0.00,,,0.00,241,Wunderground v.1.15,2013-07-15 13:44:00,
2013-07-15 09:50:00,79.3,74.0,30.15,North,32767,0.0,0.0,84,0.00,,,0.00,271,Wunderground v.1.15,2013-07-15 13:50:00,
2013-07-15 09:56:00,79.7,74.1,30.15,North,32767,0.0,0.0,83,0.00,,,0.00,269,Wunderground v.1.15,2013-07-15 13:56:00,
2013-07-15 10:01:00,79.9,74.3,30.15,North,32767,0.0,0.0,83,0.00,,,0.00,285,Wunderground v.1.15,2013-07-15 14:01:00,
2013-07-15 10:06:00,80.1,74.5,30.15,North,32767,0.0,0.0,83,0.00,,,0.00,269,Wunderground v.1.15,2013-07-15 14:06:00,
2013-07-15 10:12:00,80.4,74.4,30.15,North,32767,0.0,0.0,82,0.00,,,0.00,267,Wunderground v.1.15,2013-07-15 14:12:00,
2013-07-15 10:18:00,80.6,75.7,30.15,North,32767,0.0,0.0,85,0.00,,,0.00,269,Wunderground v.1.15,2013-07-15 14:18:00,
2013-07-15 10:24:00,81.0,75.7,30.15,North,32767,0.0,0.0,84,0.00,,,0.00,325,Wunderground v.1.15,2013-07-15 14:24:00,
2013-07-15 10:30:00,81.4,74.3,30.15,North,32767,0.0,0.0,79,0.00,,,0.00,302,Wunderground v.1.15,2013-07-15 14:30:00,
2013-07-15 10:35:00,81.7,74.5,30.15,North,32767,0.0,0.0,79,0.00,,,0.00,336,Wunderground v.1.15,2013-07-15 14:35:00,
2013-07-15 10:41:00,82.3,76.3,30.15,North,32767,0.0,0.0,82,0.00,,,0.00,905,Wunderground v.1.15,2013-07-15 14:41:00,
2013-07-15 10:47:00,82.8,76.0,30.15,North,32767,0.0,0.0,80,0.00,,,0.00,418,Wunderground v.1.15,2013-07-15 14:47:00,
2013-07-15 10:53:00,83.6,76.4,30.15,North,32767,0.0,0.0,79,0.00,,,0.00,789,Wunderground v.1.15,2013-07-15 14:53:00,
2013-07-15 10:59:00,84.6,76.2,30.15,North,32767,0.0,0.0,76,0.00,,,0.00,847,Wunderground v.1.15,2013-07-15 14:59:00,
2013-07-15 11:04:00,85.4,76.6,30.15,North,32767,0.0,0.0,75,0.00,,,0.00,779,Wunderground v.1.15,2013-07-15 15:04:00,
2013-07-15 11:09:00,86.0,76.7,30.15,North,32767,0.0,0.0,74,0.00,,,0.00,737,Wunderground v.1.15,2013-07-15 15:09:00,
2013-07-15 11:14:00,86.4,76.7,30.15,North,32767,0.0,0.0,73,0.00,,,0.00,773,Wunderground v.1.15,2013-07-15 15:14:00,
2013-07-15 11:20:00,86.5,76.4,30.15,North,32767,0.0,0.0,72,0.00,,,0.00,795,Wunderground v.1.15,2013-07-15 15:20:00,
2013-07-15 11:25:00,86.2,75.7,30.15,North,32767,0.0,0.0,71,0.00,,,0.00,803,Wunderground v.1.15,2013-07-15 15:25:00,
2013-07-15 11:31:00,86.1,75.6,30.15,North,32767,0.0,0.0,71,0.00,,,0.00,819,Wunderground v.1.15,2013-07-15 15:31:00,
2013-07-15 11:37:00,86.4,76.7,30.15,North,32767,0.0,0.0,73,0.00,,,0.00,849,Wunderground v.1.15,2013-07-15 15:37:00,
2013-07-15 11:43:00,86.9,77.6,30.15,North,32767,0.0,0.0,74,0.00,,,0.00,891,Wunderground v.1.15,2013-07-15 15:43:00,
2013-07-15 11:49:00,87.4,77.3,30.15,North,32767,0.0,0.0,72,0.00,,,0.00,211,Wunderground v.1.15,2013-07-15 15:49:00,
2013-07-15 11:55:00,87.6,78.3,30.15,North,32767,0.0,0.0,74,0.00,,,0.00,218,Wunderground v.1.15,2013-07-15 15:55:00,
2013-07-15 12:01:00,87.5,77.8,30.14,North,32767,0.0,0.0,73,0.00,,,0.00,255,Wunderground v.1.15,2013-07-15 16:01:00,
2013-07-15 12:06:00,87.4,77.7,30.14,North,32767,0.0,0.0,73,0.00,,,0.00,246,Wunderground v.1.15,2013-07-15 16:06:00,
2013-07-15 12:12:00,87.2,77.9,30.14,North,32767,0.0,0.0,74,0.00,,,0.00,956,Wunderground v.1.15,2013-07-15 16:12:00,
2013-07-15 12:17:00,87.4,78.9,30.14,North,32767,0.0,0.0,76,0.00,,,0.00,967,Wunderground v.1.15,2013-07-15 16:17:00,
2013-07-15 12:23:00,87.6,78.3,30.14,North,32767,0.0,0.0,74,0.00,,,0.00,318,Wunderground v.1.15,2013-07-15 16:23:00,
2013-07-15 12:29:00,87.4,77.3,30.14,North,32767,0.0,0.0,72,0.00,,,0.00,250,Wunderground v.1.15,2013-07-15 16:29:00,
2013-07-15 12:35:00,87.4,76.8,30.14,North,32767,0.0,0.0,71,0.00,,,0.00,954,Wunderground v.1.15,2013-07-15 16:35:00,
2013-07-15 12:41:00,87.5,76.1,30.14,North,32767,0.0,0.0,69,0.00,,,0.00,1013,Wunderground v.1.15,2013-07-15 16:41:00,
2013-07-15 12:47:00,88.0,77.0,30.14,North,32767,0.0,0.0,70,0.00,,,0.00,1007,Wunderground v.1.15,2013-07-15 16:47:00,
2013-07-15 12:53:00,88.7,79.8,30.13,North,32767,0.0,0.0,75,0.00,,,0.00,988,Wunderground v.1.15,2013-07-15 16:53:00,
2013-07-15 12:59:00,89.2,77.3,30.13,North,32767,0.0,0.0,68,0.00,,,0.00,1037,Wunderground v.1.15,2013-07-15 16:59:00,
2013-07-15 13:04:00,89.4,77.9,30.13,North,32767,0.0,0.0,69,0.00,,,0.00,691,Wunderground v.1.15,2013-07-15 17:04:00,
2013-07-15 13:10:00,89.7,78.6,30.13,North,32767,0.0,0.0,70,0.00,,,0.00,1144,Wunderground v.1.15,2013-07-15 17:10:00,
2013-07-15 13:15:00,89.9,76.1,30.13,North,32767,0.0,0.0,64,0.00,,,0.00,1028,Wunderground v.1.15,2013-07-15 17:15:00,
2013-07-15 13:21:00,89.8,76.0,30.13,North,32767,0.0,0.0,64,0.00,,,0.00,1051,Wunderground v.1.15,2013-07-15 17:21:00,
2013-07-15 13:26:00,89.4,76.5,30.13,North,32767,0.0,0.0,66,0.00,,,0.00,965,Wunderground v.1.15,2013-07-15 17:26:00,
2013-07-15 13:31:00,89.2,76.4,30.13,North,32767,0.0,0.0,66,0.00,,,0.00,944,Wunderground v.1.15,2013-07-15 17:31:00,
2013-07-15 13:37:00,89.3,75.5,30.13,North,32767,0.0,0.0,64,0.00,,,0.00,1027,Wunderground v.1.15,2013-07-15 17:37:00,
2013-07-15 13:43:00,89.7,77.7,30.12,North,32767,0.0,0.0,68,0.00,,,0.00,190,Wunderground v.1.15,2013-07-15 17:43:00,
2013-07-15 13:49:00,89.6,75.8,30.12,North,32767,0.0,0.0,64,0.00,,,0.00,311,Wunderground v.1.15,2013-07-15 17:49:00,
2013-07-15 13:55:00,88.9,76.1,30.12,North,32767,0.0,0.0,66,0.00,,,0.00,290,Wunderground v.1.15,2013-07-15 17:55:00,
2013-07-15 14:01:00,88.6,77.1,30.12,North,32767,0.0,0.0,69,0.00,,,0.00,1090,Wunderground v.1.15,2013-07-15 18:01:00,
2013-07-15 14:07:00,88.6,77.1,30.12,North,32767,0.0,0.0,69,0.00,,,0.00,258,Wunderground v.1.15,2013-07-15 18:07:00,
2013-07-15 14:13:00,88.6,76.7,30.12,North,32767,0.0,0.0,68,0.00,,,0.00,1100,Wunderground v.1.15,2013-07-15 18:13:00,
2013-07-15 14:19:00,88.8,78.2,30.12,North,32767,0.0,0.0,71,0.00,,,0.00,1083,Wunderground v.1.15,2013-07-15 18:19:00,
2013-07-15 14:25:00,89.1,77.6,30.11,North,32767,0.0,0.0,69,0.00,,,0.00,926,Wunderground v.1.15,2013-07-15 18:25:00,
2013-07-15 14:31:00,89.5,78.8,30.11,North,32767,0.0,0.0,71,0.00,,,0.00,970,Wunderground v.1.15,2013-07-15 18:31:00,
2013-07-15 14:37:00,90.0,79.8,30.11,North,32767,0.0,0.0,72,0.00,,,0.00,942,Wunderground v.1.15,2013-07-15 18:37:00,
2013-07-15 14:43:00,90.5,78.5,30.11,North,32767,0.0,0.0,68,0.00,,,0.00,949,Wunderground v.1.15,2013-07-15 18:43:00,
2013-07-15 14:49:00,90.8,78.3,30.11,North,32767,0.0,0.0,67,0.00,,,0.00,997,Wunderground v.1.15,2013-07-15 18:49:00,
2013-07-15 14:56:00,90.8,76.5,30.11,North,32767,0.0,0.0,63,0.00,,,0.00,188,Wunderground v.1.15,2013-07-15 18:56:00,
2013-07-15 15:01:00,90.4,77.0,30.11,North,32767,0.0,0.0,65,0.00,,,0.00,998,Wunderground v.1.15,2013-07-15 19:01:00,
2013-07-15 15:06:00,90.3,77.8,30.11,North,32767,0.0,0.0,67,0.00,,,0.00,316,Wunderground v.1.15,2013-07-15 19:06:00,
2013-07-15 15:12:00,90.5,77.6,30.11,North,32767,0.0,0.0,66,0.00,,,0.00,172,Wunderground v.1.15,2013-07-15 19:12:00,
2013-07-15 15:18:00,90.2,76.4,30.11,North,32767,0.0,0.0,64,0.00,,,0.00,265,Wunderground v.1.15,2013-07-15 19:18:00,
2013-07-15 15:24:00,90.1,77.7,30.10,North,32767,0.0,0.0,67,0.00,,,0.00,879,Wunderground v.1.15,2013-07-15 19:24:00,
2013-07-15 15:30:00,90.2,77.8,30.10,North,32767,0.0,0.0,67,0.00,,,0.00,891,Wunderground v.1.15,2013-07-15 19:30:00,
2013-07-15 15:36:00,90.3,79.2,30.10,North,32767,0.0,0.0,70,0.00,,,0.00,860,Wunderground v.1.15,2013-07-15 19:36:00,
2013-07-15 15:42:00,90.4,78.4,30.09,North,32767,0.0,0.0,68,0.00,,,0.00,838,Wunderground v.1.15,2013-07-15 19:42:00,
2013-07-15 15:48:00,90.5,76.2,30.09,North,32767,0.0,0.0,63,0.00,,,0.00,689,Wunderground v.1.15,2013-07-15 19:48:00,
2013-07-15 15:54:00,90.7,78.2,30.09,North,32767,0.0,0.0,67,0.00,,,0.00,380,Wunderground v.1.15,2013-07-15 19:54:00,
2013-07-15 16:00:00,90.4,77.0,30.09,North,32767,0.0,0.0,65,0.00,,,0.00,149,Wunderground v.1.15,2013-07-15 20:00:00,
2013-07-15 16:06:00,89.9,78.4,30.10,North,32767,0.0,0.0,69,0.00,,,0.00,128,Wunderground v.1.15,2013-07-15 20:06:00,
2013-07-15 16:12:00,89.2,76.8,30.09,North,32767,0.0,0.0,67,0.00,,,0.00,142,Wunderground v.1.15,2013-07-15 20:12:00,
2013-07-15 16:17:00,88.7,76.8,30.09,North,32767,0.0,0.0,68,0.00,,,0.00,121,Wunderground v.1.15,2013-07-15 20:17:00,
2013-07-15 16:23:00,88.1,76.6,30.09,North,32767,0.0,0.0,69,0.00,,,0.00,200,Wunderground v.1.15,2013-07-15 20:23:00,
2013-07-15 16:28:00,88.0,76.1,30.09,North,32767,0.0,0.0,68,0.00,,,0.00,190,Wunderground v.1.15,2013-07-15 20:28:00,
2013-07-15 16:34:00,88.0,76.1,30.09,North,32767,0.0,0.0,68,0.00,,,0.00,123,Wunderground v.1.15,2013-07-15 20:34:00,
2013-07-15 16:40:00,87.9,77.3,30.09,North,32767,0.0,0.0,71,0.00,,,0.00,135,Wunderground v.1.15,2013-07-15 20:40:00,
2013-07-15 16:45:00,87.6,78.3,30.09,North,32767,0.0,0.0,74,0.00,,,0.00,220,Wunderground v.1.15,2013-07-15 20:45:00,
2013-07-15 16:51:00,87.3,77.6,30.09,North,32767,0.0,0.0,73,0.00,,,0.00,345,Wunderground v.1.15,2013-07-15 20:51:00,
2013-07-15 16:57:00,87.4,78.5,30.09,North,32767,0.0,0.0,75,0.00,,,0.00,274,Wunderground v.1.15,2013-07-15 20:57:00,
2013-07-15 17:03:00,87.5,78.2,30.09,North,32767,0.0,0.0,74,0.00,,,0.00,462,Wunderground v.1.15,2013-07-15 21:03:00,
2013-07-15 17:08:00,87.6,77.9,30.09,North,32767,0.0,0.0,73,0.00,,,0.00,332,Wunderground v.1.15,2013-07-15 21:08:00,
2013-07-15 17:14:00,87.7,79.2,30.08,North,32767,0.0,0.0,76,0.00,,,0.00,262,Wunderground v.1.15,2013-07-15 21:14:00,
2013-07-15 17:22:00,87.7,78.4,30.09,North,32767,0.0,0.0,74,0.00,,,0.00,608,Wunderground v.1.15,2013-07-15 21:22:00,
2013-07-15 17:28:00,87.9,79.0,30.08,North,32767,0.0,0.0,75,0.00,,,0.00,320,Wunderground v.1.15,2013-07-15 21:28:00,
2013-07-15 17:33:00,88.0,78.3,30.08,North,32767,0.0,0.0,73,0.00,,,0.00,243,Wunderground v.1.15,2013-07-15 21:33:00,
2013-07-15 17:39:00,88.2,78.4,30.08,North,32767,0.0,0.0,73,0.00,,,0.00,202,Wunderground v.1.15,2013-07-15 21:39:00,
2013-07-15 17:44:00,88.3,77.7,30.08,North,32767,0.0,0.0,71,0.00,,,0.00,183,Wunderground v.1.15,2013-07-15 21:44:00,
2013-07-15 17:49:00,88.3,77.3,30.08,North,32767,0.0,0.0,70,0.00,,,0.00,153,Wunderground v.1.15,2013-07-15 21:49:00,
2013-07-15 17:55:00,88.2,78.4,30.08,North,32767,0.0,0.0,73,0.00,,,0.00,149,Wunderground v.1.15,2013-07-15 21:55:00,
2013-07-15 18:01:00,88.0,77.8,30.07,North,32767,0.0,0.0,72,0.00,,,0.00,128,Wunderground v.1.15,2013-07-15 22:01:00,
2013-07-15 18:07:00,87.6,77.0,30.08,North,32767,0.0,0.0,71,0.00,,,0.00,123,Wunderground v.1.15,2013-07-15 22:07:00,
2013-07-15 18:12:00,87.3,77.2,30.09,North,32767,0.0,0.0,72,0.00,,,0.00,120,Wunderground v.1.15,2013-07-15 22:12:00,
2013-07-15 18:18:00,87.2,76.2,30.08,North,32767,0.0,0.0,70,0.00,,,0.00,98,Wunderground v.1.15,2013-07-15 22:18:00,
2013-07-15 18:24:00,87.1,77.8,30.07,North,32767,0.0,0.0,74,0.00,,,0.00,107,Wunderground v.1.15,2013-07-15 22:24:00,
2013-07-15 18:30:00,86.7,77.0,30.08,North,32767,0.0,0.0,73,0.00,,,0.00,107,Wunderground v.1.15,2013-07-15 22:30:00,
2013-07-15 18:35:00,86.5,76.4,30.08,North,32767,0.0,0.0,72,0.00,,,0.00,116,Wunderground v.1.15,2013-07-15 22:35:00,
2013-07-15 18:41:00,86.5,77.6,30.08,North,32767,0.0,0.0,75,0.00,,,0.00,123,Wunderground v.1.15,2013-07-15 22:41:00,
2013-07-15 18:47:00,86.4,77.1,30.07,North,32767,0.0,0.0,74,0.00,,,0.00,104,Wunderground v.1.15,2013-07-15 22:47:00,
2013-07-15 18:54:00,86.2,76.9,30.08,North,32767,0.0,0.0,74,0.00,,,0.00,81,Wunderground v.1.15,2013-07-15 22:54:00,
2013-07-15 19:00:00,85.9,76.6,30.08,North,32767,0.0,0.0,74,0.00,,,0.00,51,Wunderground v.1.15,2013-07-15 23:00:00,
2013-07-15 19:05:00,85.6,76.4,30.08,North,32767,0.0,0.0,74,0.00,,,0.00,30,Wunderground v.1.15,2013-07-15 23:05:00,
2013-07-15 19:10:00,85.4,76.6,30.08,North,32767,0.0,0.0,75,0.00,,,0.00,26,Wunderground v.1.15,2013-07-15 23:10:00,
2013-07-15 19:15:00,85.2,76.0,30.08,North,32767,0.0,0.0,74,0.00,,,0.00,18,Wunderground v.1.15,2013-07-15 23:15:00,
2013-07-15 19:21:00,84.9,76.1,30.09,North,32767,0.0,0.0,75,0.00,,,0.00,11,Wunderground v.1.15,2013-07-15 23:21:00,
2013-07-15 19:27:00,84.5,76.1,30.08,North,32767,0.0,0.0,76,0.00,,,0.00,5,Wunderground v.1.15,2013-07-15 23:27:00,
2013-07-15 19:33:00,84.1,76.1,30.09,North,32767,0.0,0.0,77,0.00,,,0.00,5,Wunderground v.1.15,2013-07-15 23:33:00,
2013-07-15 19:39:00,83.6,75.6,30.09,North,32767,0.0,0.0,77,0.00,,,0.00,0,Wunderground v.1.15,2013-07-15 23:39:00,
2013-07-15 19:45:00,83.1,74.4,30.09,North,32767,0.0,0.0,75,0.00,,,0.00,0,Wunderground v.1.15,2013-07-15 23:45:00,
2013-07-15 19:51:00,82.9,74.6,30.09,North,32767,0.0,0.0,76,0.00,,,0.00,0,Wunderground v.1.15,2013-07-15 23:51:00,
2013-07-15 19:57:00,82.6,74.7,30.10,North,32767,0.0,0.0,77,0.00,,,0.00,0,Wunderground v.1.15,2013-07-15 23:57:00,
2013-07-15 20:02:00,82.3,74.7,30.11,North,32767,0.0,0.0,78,0.00,,,0.00,0,Wunderground v.1.15,2013-07-16 00:02:00,
2013-07-15 20:08:00,81.9,74.7,30.10,North,32767,0.0,0.0,79,0.00,,,0.00,0,Wunderground v.1.15,2013-07-16 00:08:00,
2013-07-15 20:14:00,81.5,74.7,30.10,North,32767,0.0,0.0,80,0.00,,,0.00,5,Wunderground v.1.15,2013-07-16 00:14:00,
2013-07-15 20:20:00,81.0,75.7,30.11,North,32767,0.0,0.0,84,0.00,,,0.00,0,Wunderground v.1.15,2013-07-16 00:20:00,
2013-07-15 20:26:00,80.2,75.6,30.11,North,32767,0.0,0.0,86,0.00,,,0.00,5,Wunderground v.1.15,2013-07-16 00:26:00,
2013-07-15 20:31:00,79.5,74.9,30.11,North,32767,0.0,0.0,86,0.00,,,0.00,0,Wunderground v.1.15,2013-07-16 00:31:00,
2013-07-15 20:37:00,78.7,74.2,30.10,North,32767,0.0,0.0,86,0.00,,,0.00,0,Wunderground v.1.15,2013-07-16 00:37:00,
2013-07-15 20:43:00,78.0,73.8,30.09,North,32767,0.0,0.0,87,0.00,,,0.00,0,Wunderground v.1.15,2013-07-16 00:43:00,
2013-07-15 20:49:00,77.5,74.0,30.08,North,32767,0.0,0.0,89,0.00,,,0.00,0,Wunderground v.1.15,2013-07-16 00:49:00,
2013-07-15 20:54:00,77.2,74.0,30.09,North,32767,0.0,0.0,90,0.00,,,0.00,0,Wunderground v.1.15,2013-07-16 00:54:00,
2013-07-15 21:00:00,76.9,74.1,30.10,North,32767,0.0,0.0,91,0.00,,,0.00,0,Wunderground v.1.15,2013-07-16 01:00:00,
2013-07-15 21:06:00,76.6,73.8,30.09,North,32767,0.0,0.0,91,0.00,,,0.00,0,Wunderground v.1.15,2013-07-16 01:06:00,
2013-07-15 21:11:00,76.5,74.0,30.09,North,32767,0.0,0.0,92,0.00,,,0.00,0,Wunderground v.1.15,2013-07-16 01:11:00,
2013-07-15 21:17:00,76.3,73.8,30.10,North,32767,0.0,0.0,92,0.00,,,0.00,0,Wunderground v.1.15,2013-07-16 01:17:00,
2013-07-15 21:24:00,76.2,73.7,30.10,North,32767,0.0,0.0,92,0.00,,,0.00,0,Wunderground v.1.15,2013-07-16 01:24:00,
2013-07-15 21:30:00,76.1,73.9,30.11,North,32767,0.0,0.0,93,0.00,,,0.00,0,Wunderground v.1.15,2013-07-16 01:30:00,
2013-07-15 21:35:00,76.0,73.8,30.10,North,32767,0.0,0.0,93,0.00,,,0.00,0,Wunderground v.1.15,2013-07-16 01:35:00,
2013-07-15 21:41:00,75.9,73.7,30.11,North,32767,0.0,0.0,93,0.00,,,0.00,0,Wunderground v.1.15,2013-07-16 01:41:00,
2013-07-15 21:47:00,75.9,73.7,30.11,North,32767,0.0,0.0,93,0.00,,,0.00,0,Wunderground v.1.15,2013-07-16 01:47:00,
2013-07-15 21:53:00,75.9,74.0,30.11,North,32767,0.0,0.0,94,0.00,,,0.00,0,Wunderground v.1.15,2013-07-16 01:53:00,
2013-07-15 21:59:00,75.8,73.6,30.11,North,32767,0.0,0.0,93,0.00,,,0.00,0,Wunderground v.1.15,2013-07-16 01:59:00,
2013-07-15 22:04:00,75.9,73.7,30.12,North,32767,0.0,0.0,93,0.00,,,0.00,0,Wunderground v.1.15,2013-07-16 02:04:00,
2013-07-15 22:10:00,75.9,74.0,30.12,North,32767,0.0,0.0,94,0.00,,,0.00,0,Wunderground v.1.15,2013-07-16 02:10:00,
2013-07-15 22:16:00,75.9,74.0,30.11,North,32767,0.0,0.0,94,0.00,,,0.00,0,Wunderground v.1.15,2013-07-16 02:16:00,
2013-07-15 22:21:00,75.9,74.0,30.11,North,32767,0.0,0.0,94,0.00,,,0.00,0,Wunderground v.1.15,2013-07-16 02:21:00,
2013-07-15 22:27:00,75.9,74.0,30.12,North,32767,0.0,0.0,94,0.00,,,0.00,0,Wunderground v.1.15,2013-07-16 02:27:00,
2013-07-15 22:33:00,75.9,74.0,30.12,North,32767,0.0,0.0,94,0.00,,,0.00,0,Wunderground v.1.15,2013-07-16 02:33:00,
2013-07-15 22:39:00,75.9,74.0,30.12,North,32767,0.0,0.0,94,0.00,,,0.00,0,Wunderground v.1.15,2013-07-16 02:39:00,
2013-07-15 22:45:00,75.9,74.0,30.12,North,32767,0.0,0.0,94,0.00,,,0.00,0,Wunderground v.1.15,2013-07-16 02:45:00,
2013-07-15 22:51:00,76.0,74.1,30.11,North,32767,0.0,0.0,94,0.00,,,0.00,0,Wunderground v.1.15,2013-07-16 02:51:00,
2013-07-15 22:57:00,76.0,74.1,30.11,North,32767,0.0,0.0,94,0.00,,,0.00,0,Wunderground v.1.15,2013-07-16 02:57:00,
2013-07-15 23:02:00,76.0,74.1,30.12,North,32767,0.0,0.0,94,0.00,,,0.00,0,Wunderground v.1.15,2013-07-16 03:02:00,
2013-07-15 23:07:00,76.0,74.1,30.11,North,32767,0.0,0.0,94,0.00,,,0.00,0,Wunderground v.1.15,2013-07-16 03:07:00,
2013-07-15 23:13:00,76.0,74.1,30.12,North,32767,0.0,0.0,94,0.00,,,0.00,0,Wunderground v.1.15,2013-07-16 03:13:00,
2013-07-15 23:19:00,75.9,74.0,30.12,North,32767,0.0,0.0,94,0.00,,,0.00,0,Wunderground v.1.15,2013-07-16 03:19:00,
2013-07-15 23:24:00,75.9,74.4,30.12,North,32767,0.0,0.0,95,0.00,,,0.00,0,Wunderground v.1.15,2013-07-16 03:24:00,
2013-07-15 23:30:00,76.0,74.5,30.13,North,32767,0.0,0.0,95,0.00,,,0.00,0,Wunderground v.1.15,2013-07-16 03:30:00,
2013-07-15 23:35:00,76.1,74.6,30.13,North,32767,0.0,0.0,95,0.00,,,0.00,0,Wunderground v.1.15,2013-07-16 03:35:00,
2013-07-15 23:41:00,76.1,74.6,30.13,North,32767,0.0,0.0,95,0.00,,,0.00,0,Wunderground v.1.15,2013-07-16 03:41:00,
2013-07-15 23:47:00,76.2,74.7,30.13,North,32767,0.0,0.0,95,0.00,,,0.00,0,Wunderground v.1.15,2013-07-16 03:47:00,
2013-07-15 23:53:00,76.2,74.7,30.13,North,32767,0.0,0.0,95,0.00,,,0.00,0,Wunderground v.1.15,2013-07-16 03:53:00,
2013-07-15 23:59:00,76.2,74.7,30.13,North,32767,0.0,0.0,95,0.00,,,0.00,0,Wunderground v.1.15,2013-07-16 03:59:00,